Tracking 23731 objects as of 27-Sep-2021
HD Live streaming from Space Station
objects crossing your sky now

SCOUT B DEB

Track SCOUT B DEB now!
10-day predictions


NORAD ID: 2800
Int'l Code: 1966-070D
Perigee: 411.5 km
Apogee: 2,841.2 km
Inclination: 81.4 °
Period: 118.6 minutes
Semi major axis: 7997 km
RCS: 0.0393 m2 (small)
Launch date: August 4, 1966
Source: United States (US)
Launch site: AIR FORCE WESTERN TEST RANGE (AFWTR)

Note: This is SATELLITE DEBRIS
aabbcc
Your satellite tracking list
Your tracking list is empty




NASA's NSSDC Master Catalog

Two Line Element Set (TLE):
1  2800U 66070D   21270.68939544  .00004204  00000-0  58828-3 0  9993
2  2800  81.4170  47.2841 1519079 148.6318 221.5168 12.13906830373429
Source of the keplerian elements: AFSPC